User: anonymous   Login
Location: *
(2.5500°S, 65.9667°W)
Time: 18:19:30
(UTC+00:00)
Language:

ATLAS 2A CENTAUR R/B - Orbit

View from above orbital plane
View from above orbital plane
View from above satellite
View from above satellite

Ground track
Ground track

The orbit data is extracted from the following two-line orbital elements,

1 26389U 00034B   22020.40626357  .00009851  00000-0  10017-2 0  9998
2 26389  26.8874  65.8016 5361718 334.9008   6.5746  5.06514576329684
Epoch (UTC): 20 January 2022 09:45:01
Eccentricity: 0.5361718
inclination: 26.8874°
perigee height: 265 km
apogee height: 15623 km
right ascension of ascending node: 65.8016°
argument of perigee: 334.9008°
revolutions per day: 5.06514576
mean anomaly at epoch: 6.5746°
orbit number at epoch: 32968

The dashed part of the orbit path shows where the satellite is in the earth's shadow,  

DLR